[[{"header":{"parameterUnit":"m.s-1","parameterCategory":1,"la1":30.2991,"la2":30.254,"lo1":-89.0895,"lo2":-89.0444,"dy":0.0017,"dx":0.0017,"nx":28,"ny":28,"refTime":"2025-04-28T21:00:00:Z","depth":0,"parameterNumber":2,"parameterNumberName":"U-component_of_WINDS"},"data":[0,0,0,0,0,0,0,0,0,0,0,0,0,0,0,0,0,0,0,0,0,0,0,0,0,0,0,0,0,0,0,0,0,0,0,0,0,0,0,0,0,0,0,0,0,0,0,0,0,0,0,0,0,0,0,0,0,0,0.3943,0.3944,0,0.4053,0.4054,0.4055,0.4119,0.4119,0.412,0.412,0.4229,0.4232,0.4234,0,0,0,0,0,0,0,0,0,0,0,0,0,0.3785,0.3787,0.3943,0.3944,0.3946,0.4052,0.4054,0.4055,0.4119,0.4119,0.412,0.412,0.4228,0.4231,0.4235,0,0,0,0,0,0,0,0,0,0,0,0,0,0.3869,0.3788,0.3943,0.399,0.3996,0.4052,0.4054,0.4056,0.4119,0.4119,0.412,0.412,0.4227,0.4231,0.4235,0.4252,0,0,0.4247,0.4249,0,0,0,0,0,0,0,0,0.3865,0.3875,0.3982,0.3987,0.3993,0.4073,0.4038,0.4121,0.4119,0.4072,0.412,0.412,0.4177,0.4185,0.4204,0.4257,0.4262,0.4248,0.425,0.4252,0.4253,0,0,0,0,0,0,0,0.3859,0.3871,0.3986,0.3983,0.399,0.4005,0.4017,0.4054,0.4121,0.4076,0.4081,0.4093,0.418,0.42,0.4207,0.4263,0.4248,0.4251,0.4254,0.4255,0.4334,0.4333,0,0,0,0,0,0,0.3846,0.3866,0.3983,0.3989,0.3929,0.4007,0.4021,0.4047,0.412,0.4132,0.4093,0.4096,0.4193,0.4203,0.4211,0.4235,0.4252,0.4256,0.4258,0.4334,0.4334,0.4333,0,0,0,0,0,0,0.3842,0.3856,0.3978,0.3929,0.3946,0.401,0.4038,0.4049,0.4069,0.4133,0.4145,0.4102,0.4194,0.4206,0.4241,0.424,0.4257,0.4261,0.4334,0.4334,0.4333,0.4282,0,0,0,0,0,0,0.3837,0.3854,0.3862,0.3929,0.3948,0.4007,0.4038,0.405,0.4076,0.4081,0.4145,0.4156,0.4195,0.4235,0.4245,0.4246,0.4264,0.4335,0.4334,0.4334,0.4285,0.428,0.4277,0,0,0,0,0,0.3831,0.3843,0.3862,0.3876,0.396,0.4007,0.4018,0.4064,0.4076,0.4084,0.4125,0.4154,0.4238,0.4238,0.425,0.4252,0.4335,0.4334,0.4334,0.4286,0.4281,0.4277,0,0,0,0,0,0,0.3773,0.3852,0.3874,0.3908,0.395,0.4018,0.4029,0.4057,0.4096,0.4099,0.4154,0.4168,0.4197,0.4228,0.4226,0.4271,0.429,0.4291,0.425,0.4245,0.4241,0.4233,0.4267,0,0,0,0,0,0.3764,0.3797,0.3864,0.3887,0.3907,0.3964,0.3987,0.4019,0.4064,0.4082,0.4126,0.4168,0.4204,0.4226,0.4263,0.429,0.4303,0.4296,0.4292,0.4289,0.4289,0.4304,0.4302,0.4331,0.4331,0.4331,0,0,0.3746,0.3793,0.3811,0.3877,0.3913,0.3945,0.3979,0.4011,0.4035,0.4087,0.4123,0.4156,0.4207,0.4237,0.4253,0.4264,0.4284,0.4288,0.4285,0.4287,0.4303,0.43,0.4298,0.433,0.433,0.4331,0,0,0.3728,0.3768,0.3791,0.3827,0.3883,0.392,0.3926,0.3989,0.4013,0.405,0.409,0.4118,0.4179,0.4213,0.4239,0.4233,0.4261,0.4244,0.4223,0.4237,0.4235,0.4233,0.423,0.4228,0.4244,0.4244,0.4244,0,0.3698,0.3749,0.3799,0.3829,0.3857,0.3906,0.3929,0.3961,0.4025,0.4042,0.4054,0.4131,0.4169,0.4207,0.4206,0.4225,0.4232,0.4237,0.4231,0.423,0.4229,0.4226,0.4225,0.4242,0.4242,0.4242,0.4243,0,0.3709,0.3743,0.3755,0.3816,0.3845,0.3871,0.3924,0.3946,0.3976,0.4011,0.4048,0.4095,0.4141,0.4153,0.4182,0.4195,0.42,0.4221,0.4241,0.4223,0.4221,0.4221,0.4238,0.4239,0.424,0.424,0,0,0.3657,0.3746,0.3749,0.3777,0.3842,0.3868,0.3896,0.3943,0.396,0.4003,0.4026,0.4077,0.4096,0.4124,0.4157,0.417,0.4161,0.4189,0.4191,0.4181,0.4177,0.416,0.4159,0.418,0.418,0.418,0.4172,0,0.3648,0.3702,0.3748,0.3784,0.3815,0.3863,0.3887,0.3928,0.3962,0.3992,0.403,0.4064,0.4088,0.4105,0.4119,0.4159,0.4161,0.416,0.4201,0.4202,0.4186,0.4158,0.4141,0.4132,0.4172,0.4172,0.4172,0,0.3646,0.3686,0.3726,0.3786,0.3801,0.3822,0.3868,0.3897,0.3944,0.3968,0.3999,0.4034,0.4064,0.4081,0.4122,0.4121,0.414,0.4162,0.4163,0.4168,0.4185,0.4161,0.413,0.4128,0.4172,0.4172,0.4172,0,0.3603,0.3668,0.3699,0.3722,0.3793,0.3807,0.3837,0.3885,0.3909,0.3949,0.3965,0.4007,0.403,0.4061,0.4106,0.4114,0.4142,0.4163,0.4161,0.416,0.4164,0.4163,0.4134,0.4178,0.4178,0.4178,0.4178,0,0.3587,0.3609,0.3681,0.37,0.3726,0.3778,0.3801,0.3835,0.3877,0.3902,0.3946,0.3969,0.4026,0.4056,0.4091,0.4119,0.4129,0.4148,0.4157,0.4144,0.4141,0.4156,0.4157,0.4178,0.4178,0.4178,0.4178,0,0.3543,0.3593,0.363,0.3695,0.3712,0.3727,0.3782,0.3802,0.3838,0.387,0.3881,0.3937,0.3974,0.4022,0.4074,0.4097,0.412,0.4135,0.4105,0.411,0.4105,0.4104,0.4084,0.4083,0.4128,0.4128,0.4127,0,0.353,0.3548,0.3615,0.3636,0.3665,0.3698,0.3723,0.3775,0.3799,0.3854,0.3867,0.3907,0.3942,0.3998,0.4043,0.4083,0.4098,0.4088,0.4104,0.4089,0.4096,0.4094,0.4095,0.4083,0.4083,0.4082,0.4082,0,0.35,0.3524,0.356,0.3604,0.3633,0.367,0.3709,0.3723,0.3782,0.3807,0.3846,0.3873,0.3926,0.3964,0.401,0.404,0.407,0.4076,0.4078,0.4064,0.4045,0.4054,0.4092,0.4076,0.4077,0.4077,0.4078,0.4078,0.347,0.3488,0.3538,0.3576,0.3611,0.3646,0.3667,0.3707,0.374,0.3788,0.3816,0.3853,0.3899,0.3963,0.3991,0.402,0.4032,0.4034,0.4034,0.4034,0.4029,0.4042,0.4029,0.4029,0.4029,0.4029,0.4029,0,0.3442,0.3476,0.3511,0.3564,0.3593,0.3621,0.3665,0.3687,0.372,0.376,0.3794,0.3837,0.3875,0.3923,0.3964,0.3978,0.3993,0.3987,0.3985,0.3991,0.4017,0.4011,0.3974,0.3974,0.3974,0.3974,0.3974,0.3974,0.343,0.3462,0.3491,0.3539,0.3573,0.3611,0.3633,0.3665,0.3698,0.3745,0.3777,0.3808,0.3851,0.3895,0.3931,0.3944,0.3956,0.3946,0.3962,0.3985,0.399,0.3995,0.3989,0.3948,0.3948,0.3935,0.3935,0.3934]},{"header":{"parameterUnit":"m.s-1","parameterCategory":1,"la1":30.2991,"la2":30.254,"lo1":-89.0895,"lo2":-89.0444,"dy":0.0017,"dx":0.0017,"nx":28,"ny":28,"refTime":"2025-04-28T21:00:00:Z","depth":0,"parameterNumber":3,"parameterNumberName":"V-component_of_WINDS"},"data":[0,0,0,0,0,0,0,0,0,0,0,0,0,0,0,0,0,0,0,0,0,0,0,0,0,0,0,0,0,0,0,0,0,0,0,0,0,0,0,0,0,0,0,0,0,0,0,0,0,0,0,0,0,0,0,0,0,0,4.5178,4.5178,0,4.5157,4.5156,4.5156,4.5095,4.5094,4.5092,4.5091,4.5071,4.5072,4.5072,0,0,0,0,0,0,0,0,0,0,0,0,0,4.5167,4.5168,4.5178,4.5178,4.5177,4.5157,4.5156,4.5156,4.5095,4.5094,4.5092,4.509,4.5071,4.5072,4.5072,0,0,0,0,0,0,0,0,0,0,0,0,0,4.5162,4.5168,4.5178,4.5144,4.5141,4.5157,4.5156,4.5156,4.5096,4.5094,4.5091,4.509,4.507,4.5071,4.5073,4.5119,0,0,4.5076,4.5076,0,0,0,0,0,0,0,0,4.5162,4.5162,4.515,4.5147,4.5143,4.5126,4.5145,4.5144,4.5096,4.5113,4.5091,4.5089,4.5091,4.509,4.5091,4.5118,4.5118,4.5076,4.5077,4.5077,4.5077,0,0,0,0,0,0,0,4.5163,4.5163,4.5169,4.5149,4.5146,4.5131,4.5128,4.5145,4.5114,4.5111,4.5107,4.5105,4.5089,4.509,4.509,4.5117,4.5076,4.5077,4.5078,4.5078,4.5182,4.5184,0,0,0,0,0,0,4.5167,4.5163,4.517,4.5169,4.5148,4.5133,4.5129,4.5134,4.5113,4.5108,4.5107,4.5102,4.5089,4.5089,4.5089,4.5142,4.5077,4.5078,4.5079,4.518,4.5183,4.5185,0,0,0,0,0,0,4.5168,4.5169,4.5171,4.5165,4.5164,4.5135,4.5141,4.5134,4.5135,4.511,4.5104,4.5113,4.5088,4.5088,4.5112,4.5141,4.5079,4.5079,4.5178,4.5181,4.5184,4.5249,0,0,0,0,0,0,4.5167,4.5169,4.5186,4.5166,4.5165,4.5194,4.5142,4.5135,4.5137,4.5131,4.5114,4.511,4.5086,4.5111,4.5113,4.5141,4.508,4.5175,4.5179,4.5183,4.5244,4.5254,4.5262,0,0,0,0,0,4.5167,4.5206,4.5187,4.5188,4.5185,4.5196,4.5195,4.5167,4.514,4.5157,4.514,4.511,4.5137,4.5114,4.5116,4.5144,4.5173,4.5178,4.5183,4.524,4.5252,4.5262,0,0,0,0,0,0,4.523,4.5202,4.5182,4.5214,4.5208,4.5186,4.5206,4.518,4.5182,4.5176,4.5141,4.5138,4.5167,4.5158,4.5133,4.5189,4.515,4.5156,4.5193,4.5204,4.5213,4.5215,4.5081,0,0,0,0,0,4.5248,4.5259,4.5234,4.5265,4.5263,4.5235,4.5239,4.5217,4.5209,4.5207,4.5192,4.5186,4.5193,4.5198,4.5204,4.5243,4.5238,4.5264,4.5273,4.5281,4.5285,4.5305,4.5316,4.5201,4.5201,4.5201,0,0,4.5285,4.5271,4.528,4.5277,4.527,4.5282,4.5233,4.5248,4.5257,4.5209,4.5231,4.522,4.5211,4.5244,4.5257,4.5237,4.5316,4.5287,4.5293,4.5294,4.5312,4.5322,4.5332,4.5204,4.5203,4.5203,0,0,4.5358,4.5348,4.5373,4.5367,4.5356,4.5337,4.5343,4.5325,4.5316,4.5337,4.5302,4.5312,4.5325,4.532,4.5319,4.5391,4.5363,4.5394,4.5441,4.5461,4.547,4.5478,4.5503,4.5513,4.5399,4.5399,4.5399,0,4.5405,4.5421,4.5389,4.5406,4.5406,4.5364,4.5389,4.5384,4.5376,4.5377,4.5355,4.537,4.5361,4.5392,4.5409,4.541,4.5416,4.5395,4.5471,4.5479,4.5486,4.5509,4.5519,4.5403,4.5402,4.5402,4.5402,0,4.5479,4.5491,4.5512,4.5505,4.5508,4.5529,4.5501,4.5508,4.5486,4.5471,4.5493,4.5481,4.5483,4.5489,4.5468,4.5517,4.5504,4.5478,4.5438,4.5501,4.5523,4.5532,4.5408,4.5407,4.5406,4.5405,0,0,4.559,4.5565,4.5573,4.5569,4.5554,4.5563,4.5583,4.5584,4.559,4.5587,4.5602,4.5614,4.5589,4.5589,4.5567,4.5585,4.5642,4.5556,4.5555,4.5572,4.5695,4.5714,4.5725,4.5624,4.5626,4.5627,4.5695,0,4.5658,4.5689,4.5662,4.5698,4.5709,4.5669,4.5686,4.5679,4.5665,4.5672,4.5657,4.5666,4.5633,4.5632,4.5648,4.5632,4.5666,4.5627,4.5639,4.5639,4.5641,4.5737,4.5757,4.5822,4.5703,4.5705,4.5706,0,4.5742,4.5741,4.5778,4.5761,4.5764,4.578,4.5779,4.5787,4.5779,4.5767,4.5767,4.5741,4.5759,4.5721,4.5746,4.572,4.5723,4.5717,4.5719,4.5718,4.5676,4.5738,4.5842,4.5851,4.5719,4.5718,4.5717,0,4.5818,4.5827,4.585,4.5848,4.5829,4.5841,4.5833,4.5823,4.5825,4.5825,4.5826,4.5829,4.583,4.5832,4.5808,4.5783,4.5836,4.5796,4.5827,4.5828,4.584,4.5839,4.5945,4.5843,4.5843,4.5843,4.5843,0,4.5896,4.5921,4.5884,4.5898,4.5924,4.5893,4.592,4.5909,4.59,4.5912,4.5878,4.589,4.5857,4.5866,4.5847,4.5871,4.5872,4.5863,4.5858,4.5866,4.5867,4.5867,4.5862,4.5846,4.5845,4.5845,4.5844,0,4.5986,4.5962,4.5985,4.5965,4.596,4.5981,4.5964,4.5976,4.596,4.5976,4.5978,4.5953,4.5961,4.5937,4.5943,4.593,4.5964,4.5952,4.5967,4.5963,4.5995,4.5992,4.6104,4.6117,4.6008,4.6009,4.601,0,4.6037,4.6055,4.6036,4.6042,4.6036,4.6045,4.6047,4.6018,4.6022,4.6014,4.6028,4.6034,4.6036,4.6052,4.6035,4.6039,4.6026,4.6065,4.6026,4.6034,4.6026,4.6025,4.6026,4.6073,4.6074,4.6075,4.6076,0,4.613,4.6118,4.6122,4.6123,4.6126,4.6126,4.6122,4.6129,4.6097,4.6104,4.6112,4.6114,4.6119,4.6125,4.6125,4.6118,4.6092,4.6088,4.6096,4.6104,4.6111,4.6107,4.5988,4.6086,4.6085,4.6084,4.6084,4.6083,4.6201,4.6215,4.6204,4.6211,4.6205,4.6203,4.6214,4.6199,4.6205,4.6207,4.6189,4.6201,4.6193,4.619,4.6186,4.6195,4.6178,4.6188,4.6191,4.6194,4.6199,4.6111,4.6195,4.6195,4.6195,4.6195,4.6194,0,4.6292,4.6284,4.629,4.6286,4.6291,4.6266,4.6261,4.6267,4.6278,4.6272,4.6276,4.6285,4.6291,4.6275,4.6278,4.6289,4.6277,4.6291,4.6289,4.6288,4.6215,4.6208,4.63,4.63,4.63,4.63,4.63,4.63,4.634,4.6362,4.6348,4.6368,4.6359,4.6369,4.6369,4.6367,4.6362,4.6374,4.6379,4.6368,4.6358,4.6361,4.6365,4.636,4.6363,4.6381,4.6372,4.6304,4.6293,4.6284,4.6277,4.6382,4.6382,4.6445,4.6445,4.6446]}]]